Regional Weather Roundup
Issued by NWS

Home | Current Version | Previous Version | Text Only | Print | Product List | Glossary Off
Versions: 1 2 3 4 5 6 7 8 9 10 11 12 13 14 15 16 17 18 19 20 21 22 23 24 25 26 27 28 29 30 31 32 33 34 35 36 37 38 39 40 41 42 43 44 45 46 47 48 49 50

000
ASUS43 KBIS 252010
RWRND

NORTH DAKOTA REGIONAL WEATHER ROUNDUP
NATIONAL WEATHER SERVICE BISMARCK ND
300 PM CDT SUN SEP 25 2016

NOTE: "FAIR" INDICATES FEW OR NO CLOUDS BELOW 12,000 FEET WITH NO
SIGNIFICANT WEATHER AND/OR OBSTRUCTIONS TO VISIBILITY.


NDZ001>003-009>011-017-252100-
NORTHWEST NORTH DAKOTA

CITY           SKY/WX    TMP DP  RH WIND       PRES   REMARKS
WILLISTON      SUNNY     64  33  31 NW29G37   30.19S
MINOT          MOSUNNY   63  36  36 W36G47    30.04S
MINOT AFB      MOSUNNY   62  37  40 NW36G45   30.02R
$$

NDZ018>021-031>035-040>046-252100-
SOUTHWEST NORTH DAKOTA

CITY           SKY/WX    TMP DP  RH WIND       PRES   REMARKS
BISMARCK       PTSUNNY   62  33  33 NW23G38   30.11S
DICKINSON      SUNNY     60  28  29 NW25G38   30.18F
GARRISON         N/A     62  35  36 NW36G44   30.08F
HETTINGER ARPT MOSUNNY   62  33  33 NW26G38   30.23F
$$

NDZ004>008-012>016-024-026-027-054-252100-
NORTHEAST NORTH DAKOTA

CITY           SKY/WX    TMP DP  RH WIND       PRES   REMARKS
GRAND FORKS    CLOUDY    57  48  72 NW24G38   29.82R
GRND FRKS AFB  LGT RAIN  56  47  71 NW31G39   29.84R
DEVILS LAKE    CLOUDY    57  40  52 NW32G40   29.90S
$$

NDZ022-023-025-028>030-036>039-047>053-252100-
SOUTHEAST NORTH DAKOTA

CITY           SKY/WX    TMP DP  RH WIND       PRES   REMARKS
FARGO          CLOUDY    60  46  59 NW26G39   29.88R
JAMESTOWN      PTSUNNY   60  40  47 NW28G41   29.97R
$$





USA.gov is the U.S. government's official web portal to all federal, state and local government web resources and services.